Regional Weather Roundup
Issued by NWS Grand Forks, ND

Home | Current Version | Previous Version | Graphics & Text | Print | Product List | Glossary On
Versions: 1 2 3 4 5 6 7 8 9 10 11 12 13 14 15 16 17 18 19 20 21 22 23 24 25 26 27 28 29 30 31 32 33 34 35 36 37 38 39 40 41 42 43 44 45 46 47 48 49 50
000
ASUS43 KFGF 230510
RWRFGF
PRAIRIE TO PINES  WEATHER ROUNDUP
NATIONAL WEATHER SERVICE EASTERN NORTH DAKOTA/GRAND FORKS ND
1100 PM CST SUN JAN 22 2017

 **SATELLITE DATA USED TO AUGMENT SKY COVER AT AUTOMATED STATIONS**
 *****  WEATHER ACROSS EASTERN NORTH DAKOTA  *****

CITY           SKY/WX    TMP DP  RH WIND       PRES   REMARKS
GRAND FORKS    CLOUDY    33  28  81 W5        29.77S
GRAND FRKS AFB CLOUDY    32  28  83 NW3       29.77S
DEVILS LAKE    CLOUDY    30  28  92 W15       29.76S WCI  19
FARGO          CLOUDY    34  29  82 W7        29.79S
WAHPETON ARPT  CLOUDY    32  30  93 CALM      29.81S
$$

 ***** WEATHER ACROSS CENTRAL AND WESTERN NORTH DAKOTA  *****

CITY           SKY/WX    TMP DP  RH WIND       PRES   REMARKS
BISMARCK       CLOUDY    32  25  75 W10       29.83R WCI  24
MINOT          CLOUDY    30  26  85 W10       29.77S WCI  21
JAMESTOWN      CLOUDY    32  27  81 NW13      29.79R WCI  22
MINOT AFB      MOCLDY    29  25  88 W12       29.76S WCI  19
GARRISON         N/A     28  23  81 NW8       29.78F WCI  20
WILLISTON      CLOUDY    28  23  81 W5        29.80S WCI  23
DICKINSON      CLOUDY    25  21  85 NW12      29.77S WCI  14
HETTINGER      CLOUDY    24  22  91 W9        29.82S WCI  14
$$

 *****  OTHER AIRPORT OBSERVATIONS IN OUR AREA  *****

CITY           SKY/WX    TMP DP  RH WIND       PRES   REMARKS
WALHALLA       NOT AVBL
GRAFTON AIRPOR CLOUDY    32  30  93 W5        29.78S
VALLEY CITY AR CLOUDY    32  32 100 NW7       29.81R
CANDO          NOT AVBL
CAVALIER APRT  CLOUDY    32  28  86 CALM      29.75S
GWINNER        CLOUDY    34  32  93 NW10      29.81S
SHEYENNE NWR     N/A     33  28  83 NW6       29.95S
ROLLA            N/A    N/A N/A N/A MISG        N/A
 ***** THE ABOVE OBSERVATIONS ARE NON NWS ARE NOT QUALITY
       CONTROLLED AND MAY MIS-REPORT RAIN FOR SNOW...
$$

  *****  WEATHER ACROSS NORTHERN MINNESOTA  *****

CITY           SKY/WX    TMP DP  RH WIND       PRES   REMARKS
FLAG ISLAND    CLOUDY    34  32  93 CALM      29.72S FOG
WARROAD        CLOUDY    34  28  80 SW5       29.74S FOG
ROSEAU         LGT SNOW  34  28  80 SW6       29.74R
HALLOCK        CLOUDY    32  30  93 W6        29.75S
THF RVR FALLS  CLOUDY    30  29  96 SW8       29.76S FOG     WCI  22
BAUDETTE       FOG       33  32  96 CALM      29.72S VSB 3/4
WASKISH        CLOUDY    34  32  93 SW8       29.74S FOG
CROOKSTON      CLOUDY    32  30  93 SW5       29.78S
GREENBUSH NDAW   N/A     32  32 100 SW6         N/A
$$
  *****  WEATHER ACROSS CENTRAL AND WEST MINNESOTA  *****

CITY           SKY/WX    TMP DP  RH WIND       PRES   REMARKS
FOSSTON        CLOUDY    28  28 100 W5        29.76S FOG     WCI  23
BEMIDJI        CLOUDY    31  31 100 W7        29.74S FOG     WCI  25
PARK RAPIDS    CLOUDY    32  29  88 W8        29.75R FOG     WCI  25
ELBOW LAKE     CLOUDY    31  30  99 W8        29.80S FOG     WCI  23
WADENA         CLOUDY    30  30 100 W5        29.77  FOG
DETROIT LAKES  CLOUDY    32  32 100 NW7       29.78S FOG
MOORHEAD       CLOUDY    32  28  86 NW6       29.80S
FERGUS FALLS   CLOUDY    30  30 100 NW7       29.83S WCI  23
MORRIS MN      MOCLDY    34  32  93 NW9       29.79S FOG
STAPLES        CLOUDY    30  30 100 W8        29.77R FOG     WCI  23
$$
  *****  WEATHER ELSEWHERE ACROSS MINNESOTA  *****

CITY           SKY/WX    TMP DP  RH WIND       PRES   REMARKS
DULUTH         CLOUDY    35  34  96 NW5       29.71R
INTRNTL FALLS  FOG       35  34  96 CALM      29.72R VSB 1/4
ELY            FOG       32  32 100 CALM      29.71R VSB 1/2
CLOQUET        FOG       36  34  93 CALM      29.73R VSB 1/2
WHEATON        CLOUDY    37  37 100 W7        29.83S
BRAINERD       CLOUDY    33  32  96 W7        29.76R FOG
HIBBING        FOG       32  32 100 CALM      29.72R VSB 1/2
ALEXANDRIA     CLOUDY    31  30  96 NW13      29.79R FOG     WCI  21
SAINT CLOUD    CLOUDY    33  33 100 W8        29.78S FOG
MINNEAPOLIS    DRIZZLE   34  32  92 W9        29.79S FOG
$$

  *****  WEATHER ACROSS SOUTH DAKOTA  *****

CITY           SKY/WX    TMP DP  RH WIND       PRES   REMARKS
SIOUX FALLS    CLOUDY    31  29  92 NW8       29.86S WCI  23
BROOKINGS      CLOUDY    30  28  92 NW10      29.82S WCI  21
WATERTOWN      CLOUDY    30  29  96 W7        29.81R WCI  23
HURON          CLOUDY    31  28  89 NW8       29.87S WCI  23
SISSETON         N/A     34  30  85 NW14      29.81R WCI  25
ABERDEEN       CLOUDY    32  26  78 NW8       29.85R WCI  25
MITCHELL       CLOUDY    32  28  85 NW13      29.90R WCI  22
PIERRE         CLOUDY    27  23  85 W10       29.88R WCI  17
MOBRIDGE       CLOUDY    30  24  78 NW8       29.82S WCI  22
RAPID CITY     FAIR      26  21  81 SE5       29.80F WCI  20
$$

  *****  SOME WEATHER IN NEARBY STATES *****

CITY           SKY/WX    TMP DP  RH WIND       PRES   REMARKS
GLASGOW MT     CLOUDY    29  24  82 S6        29.78S WCI  23
GREAT FALLS MT SNOW      24  22  91 N9        29.70S VSB 1/4 WCI  14
CHEYENNE WY    FAIR      29  12  49 S12       29.79F WCI  19
SCOTTSBLUFF NE FAIR      26  19  74 E5        29.82F WCI  20
OMAHA NE       FAIR      27  23  85 NW9       29.90R WCI  18
DES MOINES IA  DRIZZLE   37  35  92 NW13      29.84R
DAVENPORT IA   CLOUDY    36  34  92 N8        29.78R
CHICAGO IL     CLOUDY    40  37  89 N9        29.69R
EAU CLAIRE WI  CLOUDY    35  34  96 W5        29.75S FOG
LA CROSSE WI   CLOUDY    39  36  89 N7        29.76S FOG
$$

  *****  SOME NATIONAL WEATHER *****

CITY           SKY/WX    TMP DP  RH WIND       PRES   REMARKS
LA GUARDIA NY  CLOUDY    45  40  82 NE25G35   29.82R
RALEIGH NC     LGT RAIN  53  51  93 E22       29.39F
ATLANTA GA     CLOUDY    50  46  86 SW17      29.26S
NEW ORLEANS LA MOCLDY    58  50  75 NW18G29   29.63R
OKLAHOMA CITY  FAIR      39  30  70 N9        29.95R
ALBUQUERQUE NM CLOUDY    38  31  76 SE6       30.11F
SALT LAKE CITY CLOUDY    37  30  75 S14       29.68F
LOS ANGELES CA CLOUDY    56  54  93 SW9       29.92R
BOISE ID       FAIR      29  26  89 S6        29.62F WCI  23
SEATTLE WA     CLOUDY    44  34  67 E10       29.59R
$$

*** WEATHER ACROSS MANITOBA...SASKATCHEWAN AND ONTARIO ***
                ***ONTARIO***

CITY           SKY/WX    TMP DP  RH WIND       PRES   REMARKS
GERALDTON      SNOW      30  30 100 E5        29.71S VSB 1/2
THUNDER BAY    CLOUDY    32  32 100 W2        29.71F
SIOUX LOOKOUT  MOCLDY    32  30  93 VRB2      29.73R
TORONTO        CLOUDY    36  32  87 E10       29.76S
BIG TROUT LK   FLURRIES  27  25  93 SE6       29.83S WCI  20
PICKLE LAKE    NOT AVBL
DRYDEN         FOG       32  32 100 VRB2      29.72R VSB 3/8
KENORA         DRZL/FOG  34  34 100 CALM      29.71S VSB 1/4
$$
                *** MANITOBA***

CITY           SKY/WX    TMP DP  RH WIND       PRES   REMARKS
BRANDON        CLOUDY    28  25  86 W12       29.71S WCI  18
DAUPHIN        FLURRIES  30  28  93 W12       29.69S WCI  21
ISLAND LAKE    LGT SNOW  30  30 100 NE3       29.76S
PILOT MOUND      N/A     28  27  93 W5          N/A  WCI  23
THE PAS        FLURRIES  30  28  93 NE6       29.76S WCI  24
THOMPSON       NOT AVBL
WINNIPEG       FLURRIES  32  30  93 W7        29.73R
LYNN LAKE      FLURRIES  14  12  92 NE8       29.92S WCI   3
CHURCHILL      LGT SNOW  18  18 100 N16G22    30.01R FOG     WCI   3
GILLAM         LGT SNOW  23  21  93 NE8       29.88S WCI  14
$$
                ***SASKATCHEWAN***

CITY           SKY/WX    TMP DP  RH WIND       PRES   REMARKS
ESTEVAN        FLURRIES  25  23  93 W10       29.77S WCI  15
KINDERSLEY     FLURRIES  16  14  93 N9        29.81F WCI   4
LLOYDMINSTER   FLURRIES  14  12  92 NE8       29.85S WCI   3
PRINCE ALBERT  LGT SNOW  19  18  93 N9        29.79S WCI   9
REGINA         FLURRIES  21  18  86 W13       29.77S WCI   9
YORKTON        FLURRIES  23  21  93 W12       29.70S WCI  12
N. BATTLEFORD  FLURRIES  12  12 100 N9        29.85F WCI   0
LA RONGE       LGT SNOW  16  12  86 N9        29.89S WCI   4
SASKATOON      FLURRIES  16  12  86 N12       29.82S WCI   3
SWIFT CURRENT  CLOUDY    18  18 100 NW9       29.75S WCI   6
$$
NOTE: THESE ARE AUTOMATED STATIONS WITH LIMITED QUALITY CONTROL
      "FAIR" INDICATES FEW OR NO CLOUDS BELOW 12,000 FEET WITH NO
      SIGNIFICANT WEATHER AND/OR OBSTRUCTIONS TO VISIBILITY.
      SKY/WX - SKY CONDITION AND SIGNIFICANT WEATHER.
      TMP - AIR TEMPERATURE.    DP   - DEWPOINT TEMPERATURE.
      RH  - RELATIVE HUMIDITY.  PRES - PRESSURE.
      HX  - HEAT INDEX.         WCI  - WIND CHILL INDEX.
$




USA.gov is the U.S. government's official web portal to all federal, state and local government web resources and services.